Dewpoint
21 18 18 18 23 23 24 20 25 31 38 38 37 36 43 38 34 32 40 46 41 45 48 49 51 52 55 58 60 60 61 60 60 59 59 60 61 63 63 63 64 66 66 66 66 67 68 68 67 67 67 68 69 68 69 69 69 70 70 69 69 68 68 68 68 69 69 69 69 69 70 69 69 69 69 67 66 66 68 69 70 69 70 70 71 72 72
24 20 19 19 17 25 17 20 26 34 37 36 36 39 43 38 40 39 45 47 43 49 50 53 58 59 59 59 60 60 60 59 60 59 59 59 61 62 62 64 65 66 67 67 67 67 67 67 67 68 67 67 68 68 68 69 69 69 70 70 70 69 68 68 68 68 68 69 69 69 70 69 69 69 69 69 67 67 68 68 68 69 70 70 70 71 71
25 23 26 20 16 21 20 19 17 27 35 36 38 38 42 41 42 46 49 48 47 53 57 58 59 59 59 57 58 59 59 60 60 59 59 60 61 62 63 64 64 65 66 67 67 67 66 66 67 67 68 68 69 69 69 69 69 70 70 69 69 70 69 70 69 69 69 70 71 71 71 70 70 70 70 73 71 72 70 68 68 70 69 69 70 70 71
25 26 20 21 27 23 26 31 31 29 24 30 32 34 38 39 40 44 46 45 47 52 58 58 58 57 57 57 57 58 59 60 60 59 60 61 62 63 64 64 65 64 65 66 66 66 67 66 66 67 68 68 69 69 69 69 70 70 69 69 69 69 70 70 70 70 71 71 72 72 73 74 73 72 72 73 72 72 71 69 70 70 70 69 70 70 70
27 28 25 29 30 26 25 31 32 36 34 32 35 39 45 42 43 39 39 41 50 56 59 57 56 58 58 58 58 57 59 59 58 59 60 61 62 63 63 64 65 65 66 65 65 66 67 67 67 68 69 68 68 69 69 69 70 70 69 68 68 68 69 69 69 70 69 71 71 72 73 73 74 74 73 72 72 72 70 69 70 70 70 70 70 70 70
26 28 30 32 27 20 23 37 36 38 33 39 41 44 48 51 46 40 42 47 55 58 57 56 56 57 56 57 57 59 58 58 58 59 61 62 63 63 63 64 64 64 64 65 66 67 67 68 69 69 70 69 68 70 70 70 70 69 69 68 68 68 69 69 69 70 70 70 71 73 74 74 74 73 73 72 72 72 71 70 69 70 70 70 70 70 68
23 29 35 29 19 23 34 40 45 40 47 49 48 49 50 53 55 56 56 56 57 57 57 57 57 57 57 59 59 60 61 61 60 60 62 62 63 62 62 63 64 64 64 64 64 65 67 68 69 70 69 70 70 69 69 69 69 69 69 68 68 68 68 69 69 69 70 71 72 73 74 74 74 73 72 72 73 73 72 70 69 69 70 70 70 69 65
27 29 26 17 23 33 34 35 42 41 45 46 46 47 48 52 55 55 55 56 57 57 57 57 57 57 59 58 60 62 62 62 60 60 60 60 61 61 62 63 63 63 63 63 63 64 66 67 68 69 69 69 69 69 69 69 69 69 69 68 68 68 68 69 69 69 70 71 72 72 71 71 71 71 72 72 73 73 72 70 70 70 70 70 69 64 58
20 27 28 23 35 31 36 38 37 35 35 37 42 43 46 50 54 56 56 56 57 57 57 57 57 58 58 56 56 60 61 61 61 61 60 62 62 62 62 64 65 64 65 65 66 66 66 66 66 67 68 69 69 69 69 69 69 69 69 68 68 68 68 68 69 69 70 70 71 70 70 70 70 70 71 71 71 71 71 70 69 70 68 64 59 56 56
31 26 23 27 26 22 31 38 39 35 39 43 47 46 44 49 55 58 57 56 56 56 57 56 57 57 55 52 53 57 61 61 61 62 62 63 63 63 62 63 63 64 66 66 66 65 64 65 65 66 67 68 69 68 68 68 68 68 68 68 68 68 68 69 69 69 69 70 70 69 69 69 70 70 70 69 69 70 69 69 69 67 63 59 57 58 55
29 28 24 22 23 27 38 40 41 40 43 46 47 45 42 47 52 58 58 56 57 56 56 55 55 53 50 50 52 58 60 61 62 61 62 63 63 62 62 63 63 65 65 65 65 65 64 63 64 65 65 68 68 68 68 69 68 68 68 68 68 68 69 69 69 69 69 69 69 69 70 70 71 70 70 69 69 69 69 68 66 63 62 60 60 59 59
35 29 24 21 29 29 38 44 42 40 41 41 33 25 34 46 50 56 57 56 56 56 55 55 54 52 48 50 54 58 60 60 60 61 61 62 62 62 63 64 64 64 64 64 63 63 63 63 64 65 65 67 68 68 68 68 68 68 68 68 67 68 69 69 69 69 69 70 69 69 69 70 70 70 70 69 69 68 67 65 62 61 61 60 59 60 60
35 35 26 25 27 41 46 46 47 46 49 38 27 24 34 46 51 56 56 56 56 56 55 55 53 55 55 56 58 61 61 61 61 62 62 62 63 63 64 63 64 63 63 62 62 63 63 63 64 65 67 68 67 67 67 67 67 68 68 68 68 68 68 68 68 67 67 67 67 67 68 67 68 68 67 66 65 64 62 61 61 60 60 61 61 61 60
30 31 27 28 32 40 44 47 48 48 41 33 33 40 47 50 51 52 56 56 57 57 55 55 56 56 59 61 61 61 62 62 62 62 62 62 62 62 62 63 62 61 61 61 61 62 62 62 63 64 65 66 66 67 66 66 67 68 68 68 68 67 67 66 66 66 66 66 66 66 67 67 66 66 65 65 64 62 62 61 60 60 60 62 61 62 61
32 31 28 25 26 39 45 48 45 50 39 39 46 48 50 54 54 56 57 58 58 58 57 58 58 58 58 60 60 61 62 62 62 61 61 62 61 61 61 60 61 60 60 60 61 61 62 62 62 63 65 65 65 66 66 66 67 68 68 68 67 66 66 66 66 66 66 66 66 66 65 65 65 64 64 63 62 62 60 60 60 60 60 61 61 61 60
30 32 33 31 33 39 50 47 41 45 48 46 51 49 51 55 56 56 56 57 59 59 59 59 57 57 58 59 60 60 61 62 62 61 62 62 61 61 60 60 60 60 59 60 60 61 61 61 62 62 63 64 65 65 65 66 67 67 66 66 66 66 65 65 65 65 65 65 65 65 65 64 64 63 63 62 62 62 62 61 61 61 61 61 61 61 59
35 36 37 40 43 45 46 50 48 50 52 56 52 50 52 54 54 56 56 57 58 59 59 58 58 57 57 58 59 59 60 60 60 61 60 59 59 59 59 59 60 60 59 59 59 60 60 60 60 60 60 62 63 64 65 66 66 66 66 66 65 65 65 64 65 64 64 64 64 64 65 64 64 63 62 62 62 62 61 60 60 59 59 60 61 62 62
43 46 46 50 46 46 48 51 53 51 51 52 52 52 53 55 55 56 56 58 58 59 59 58 57 57 58 58 59 59 60 60 60 59 58 58 58 58 58 59 59 59 59 59 58 58 58 59 59 59 59 60 60 61 64 65 65 65 65 64 64 64 64 64 65 65 65 65 65 65 65 65 64 64 63 63 62 62 62 61 60 60 61 61 61 60 57
32 30 45 44 45 50 53 53 55 55 55 53 54 53 54 56 57 58 58 58 59 60 59 58 57 57 58 58 59 59 59 59 57 56 55 56 56 56 56 57 57 56 57 57 57 57 56 57 57 57 58 59 59 61 62 63 63 63 63 62 62 60 60 60 60 60 59 59 58 58 58 59 59 59 61 63 64 64 63 62 61 61 61 62 60 57 55
33 36 45 51 51 52 53 53 54 54 54 55 56 55 56 58 58 58 59 59 59 59 58 57 58 57 58 58 58 58 58 56 55 54 54 54 54 55 55 55 55 54 55 55 55 55 56 56 57 56 57 57 59 59 60 61 61 61 60 60 59 59 59 59 59 59 59 59 57 56 55 52 53 52 52 53 54 55 58 59 57 57 60 60 58 56 55
42 49 51 51 50 51 52 53 52 52 53 54 56 57 58 58 57 58 59 59 59 59 58 59 59 58 57 59 59 58 56 55 54 54 54 53 53 53 53 54 54 53 54 54 54 54 54 53 54 55 56 57 59 59 59 58 58 58 59 60 58 57 58 58 57 59 57 57 56 54 52 50 50 51 51 52 52 52 54 55 55 55 56 57 59 57 55
40 45 46 47 45 45 48 53 55 56 57 57 58 58 59 58 58 58 59 59 59 58 59 59 59 58 58 57 57 56 55 54 54 54 54 54 53 53 55 56 57 57 55 52 51 53 53 55 55 55 56 58 59 60 61 60 57 56 56 54 54 53 54 55 53 53 52 53 53 51 49 49 48 49 52 47 49 52 53 55 52 51 52 54 55 54 53
40 44 48 49 47 48 50 54 56 58 59 59 59 59 59 59 58 59 59 58 57 57 57 59 59 57 57 57 57 56 55 55 56 56 56 55 55 56 59 59 58 57 57 58 57 56 57 58 57 57 56 56 57 59 60 61 58 56 54 53 52 52 52 51 52 51 50 49 49 48 47 47 48 49 48 48 44 45 49 50 46 44 45 48 49 51 56
48 50 50 51 52 52 54 55 56 58 59 59 59 58 58 58 58 59 59 58 57 56 57 58 58 57 57 57 57 56 56 57 58 57 57 57 58 59 59 59 59 58 58 58 57 58 58 58 56 56 55 57 59 60 60 60 57 56 55 53 51 52 53 53 54 53 50 51 51 50 50 49 49 49 48 48 48 45 43 45 44 42 41 41 42 43 45
47 52 53 55 55 55 55 56 57 58 58 58 57 58 58 57 59 59 59 58 58 57 57 57 57 57 57 57 57 56 57 57 58 59 59 59 59 58 58 58 59 59 59 58 58 58 58 58 59 59 58 58 59 60 60 58 56 56 55 54 52 52 53 53 54 55 52 52 53 52 52 51 51 50 48 48 47 47 49 45 42 41 41 41 41 41 41
52 54 55 55 55 56 57 56 57 57 57 58 57 57 60 62 59 58 58 58 58 58 58 57 56 57 57 57 57 57 57 58 59 58 57 57 58 58 58 59 59 59 59 59 59 59 58 57 58 58 58 59 59 58 58 58 59 59 59 59 58 59 59 59 58 58 58 57 55 55 55 53 52 51 52 50 48 49 49 50 50 48 45 42 42 44 42
53 54 53 53 53 53 54 53 55 56 57 58 58 57 57 59 60 58 58 58 58 58 58 57 58 58 58 57 57 57 57 57 57 57 58 59 60 60 61 61 60 59 59 58 58 59 59 57 54 53 52 53 55 57 58 59 59 59 58 58 59 61 61 60 56 57 58 59 60 60 59 59 60 59 58 57 56 55 51 50 50 50 50 52 48 43 49
52 52 52 50 51 52 54 56 57 57 57 57 57 57 57 57 56 55 55 55 55 56 57 58 58 57 56 56 56 56 56 57 58 58 59 60 60 59 58 57 57 56 56 56 56 56 56 55 55 54 54 53 55 55 55 55 55 55 54 54 54 54 55 55 54 54 55 55 55 56 57 58 61 61 62 61 60 59 58 59 55 53 54 53 52 51 48
53 54 54 51 53 56 57 57 56 56 56 56 57 57 56 54 53 52 53 53 55 56 56 57 57 57 56 55 56 57 58 58 58 59 58 58 58 57 57 56 56 55 55 55 55 54 54 54 53 53 54 52 54 53 52 52 52 52 52 51 51 52 52 52 52 52 53 54 53 54 56 57 54 55 57 58 59 58 61 60 58 56 52 50 51 52 54
54 55 55 56 56 56 56 55 55 56 56 56 55 55 54 52 52 52 52 53 54 54 55 56 56 56 55 55 57 58 58 59 59 59 58 57 57 56 56 56 56 55 55 55 55 54 53 53 54 54 55 55 51 50 49 49 49 50 50 51 52 54 53 52 52 53 52 53 55 57 54 53 52 52 53 53 55 57 58 58 56 54 52 55 57 54 53
54 55 56 56 56 55 55 55 55 55 55 55 54 53 53 52 52 53 53 53 54 55 56 56 56 58 58 58 58 58 58 58 58 58 57 57 57 57 56 56 55 55 55 54 54 54 54 54 54 54 54 54 53 50 48 47 47 48 50 53 55 57 57 56 55 52 52 53 52 51 52 53 53 53 53 52 53 54 55 56 56 56 55 52 51 51 52
54 55 55 55 55 54 54 54 54 54 54 54 54 53 53 53 53 53 54 55 56 57 57 58 58 58 58 58 58 58 57 57 57 57 57 57 57 57 57 57 56 57 55 55 56 56 55 54 55 55 56 54 53 53 51 49 49 50 52 56 53 54 56 56 56 55 55 56 53 52 54 51 51 52 52 51 51 52 53 52 51 51 51 52 51 51 53
53 53 52 53 53 53 53 54 54 54 54 54 54 54 54 54 55 55 56 56 57 57 57 57 57 57 58 58 57 57 57 56 56 56 56 56 57 57 58 58 56 56 56 56 56 56 56 55 55 56 56 55 53 51 51 51 50 50 51 53 54 56 58 55 54 53 55 53 52 51 51 52 52 54 55 54 53 53 52 52 52 52 52 51 50 50 50
52 52 53 53 52 52 52 53 54 54 54 54 55 55 55 55 56 56 56 56 56 56 57 57 57 57 57 57 57 56 56 56 55 56 56 56 56 57 58 58 56 56 56 56 56 54 53 53 54 53 54 55 55 53 51 50 50 50 50 50 51 51 52 53 53 52 52 54 54 55 54 54 51 51 52 52 51 52 53 53 53 52 51 50 50 50 48
53 52 53 53 53 53 53 53 53 53 54 54 54 55 55 56 56 56 56 56 56 56 56 56 56 56 56 56 56 56 56 56 56 56 56 56 55 55 56 55 53 53 53 54 55 56 55 53 53 53 52 53 55 56 54 51 50 50 51 52 54 52 52 52 50 51 51 51 51 49 50 51 52 54 52 50 51 52 52 52 51 51 50 50 50 51 50
54 54 54 54 53 53 53 53 53 54 54 54 54 55 55 56 56 56 56 56 56 56 56 56 56 55 55 55 55 55 55 56 56 55 55 56 55 54 54 52 51 51 51 52 53 54 55 54 55 56 56 54 53 55 58 56 55 51 52 52 54 54 55 55 54 53 53 52 53 53 51 52 52 50 51 50 50 50 50 50 50 49 48 48 49 49 49
55 54 54 54 53 53 53 53 53 53 54 54 55 55 56 56 56 56 56 56 56 56 56 55 55 55 55 55 55 55 55 55 56 56 56 55 54 53 51 51 51 51 51 51 51 53 55 56 55 54 53 52 52 54 58 60 56 55 53 52 51 51 50 49 50 48 50 51 51 50 52 51 50 50 51 47 48 49 49 49 50 49 49 49 49 49 49
54 53 54 54 54 53 53 53 53 53 54 55 55 56 56 56 56 56 56 56 56 56 55 55 54 55 55 55 55 55 55 55 55 55 55 54 54 52 51 50 50 50 50 50 52 53 54 54 54 54 52 51 51 53 57 58 59 52 51 50 51 52 51 49 49 50 49 48 53 46 46 46 46 46 47 47 48 49 49 48 49 48 48 48 48 48 48
55 54 55 55 54 53 53 53 52 52 54 55 55 56 56 56 56 56 56 56 56 56 55 55 55 55 54 54 54 54 54 55 54 54 54 53 54 52 52 51 50 50 50 52 54 54 56 53 54 48 49 51 52 54 58 58 57 50 50 50 49 50 50 51 49 50 50 49 47 48 47 47 47 47 47 47 48 49 50 49 48 49 47 47 47 47 47
55 55 56 56 54 54 53 52 51 52 53 55 55 55 56 56 56 56 56 56 56 56 55 55 54 54 53 53 53 54 54 54 53 53 53 53 53 52 52 52 52 52 54 57 55 54 54 54 53 51 52 53 54 53 56 57 55 50 48 49 51 50 50 51 50 49 51 50 50 50 45 45 46 47 47 47 47 48 48 48 48 47 47 47 47 47 48
55 55 56 55 55 54 52 51 51 51 53 54 55 55 56 55 55 56 56 56 56 56 55 55 54 54 53 53 53 53 53 54 53 53 53 52 52 51 51 50 52 53 55 53 53 55 56 54 52 51 52 53 54 57 53 55 49 47 47 47 48 48 48 48 49 48 49 49 51 45 45 46 46 45 45 44 45 46 47 47 47 46 46 46 46 47 47
56 55 55 55 55 55 52 51 51 51 52 53 55 55 55 55 55 55 56 56 56 55 55 54 56 54 53 53 52 53 53 53 53 52 52 51 51 50 50 50 53 53 55 57 55 55 52 52 53 55 51 52 54 57 56 49 45 46 47 48 48 50 49 48 47 45 46 46 44 44 45 44 43 44 45 45 44 45 46 46 46 46 46 46 46 45 46
56 55 55 55 56 55 53 51 50 50 51 52 54 55 55 55 55 55 56 56 56 55 55 54 55 55 54 52 52 52 52 52 52 52 51 51 51 51 50 50 51 51 55 54 51 49 49 50 51 52 56 55 55 56 54 45 43 44 46 48 49 48 48 47 47 46 43 42 42 42 43 43 42 42 43 42 43 44 45 45 45 46 46 45 45 45 45
57 56 55 55 56 56 54 51 51 51 50 52 54 55 55 55 55 56 56 56 56 55 54 54 54 53 53 52 52 52 52 52 51 51 51 50 51 51 51 51 51 53 55 53 50 49 49 50 51 54 56 54 55 55 50 46 46 45 45 45 45 45 45 44 43 43 43 45 44 43 43 45 42 42 41 42 42 43 44 45 45 45 45 45 45 45 45
57 57 56 55 57 56 55 52 51 50 51 52 54 55 55 55 56 56 56 56 56 55 54 54 53 53 53 53 52 53 53 52 51 51 50 49 49 50 51 54 52 53 55 53 49 48 48 50 53 53 56 53 54 52 45 43 43 44 44 44 44 45 45 45 45 45 44 44 45 45 45 43 42 41 40 42 44 43 43 44 45 45 46 45 45 45 45
57 58 57 57 57 55 55 55 55 53 53 53 53 55 56 56 56 56 56 56 55 54 54 54 53 53 53 53 53 53 52 51 51 51 50 51 50 50 51 53 51 54 53 53 47 46 47 55 54 54 53 53 52 46 44 46 46 43 44 45 46 46 44 43 43 42 42 42 42 41 41 41 41 41 41 41 41 42 44 46 46 45 45 45 45 45 44
57 57 57 56 55 55 56 56 56 55 54 53 53 54 56 57 56 56 56 55 55 54 54 54 54 53 53 53 53 52 51 50 50 51 51 51 53 53 54 54 55 56 53 48 46 46 48 53 55 53 53 53 51 45 43 42 43 43 44 44 44 42 42 41 41 41 41 42 44 46 46 44 40 41 44 45 43 44 44 43 42 43 43 45 45 47 47
57 57 56 55 55 56 56 56 55 55 54 54 54 55 56 57 56 56 55 55 54 54 54 54 54 53 53 53 53 53 51 50 50 50 51 52 52 52 52 50 52 56 52 52 51 51 55 55 53 53 52 52 47 46 43 42 43 43 44 44 42 41 41 40 39 39 42 43 41 38 39 39 41 41 41 40 40 41 40 41 41 41 42 44 45 45 45
57 57 56 56 56 56 56 56 55 55 55 55 56 56 56 56 56 55 54 54 53 54 54 54 53 54 54 54 53 52 52 51 50 50 51 51 50 50 49 53 56 54 49 47 48 49 54 55 54 53 52 51 45 45 42 42 45 45 44 43 43 43 41 39 38 40 42 44 43 42 39 38 38 38 39 40 40 40 41 40 40 41 41 42 43 44 44
56 56 56 55 55 55 56 57 57 57 56 56 56 56 56 56 55 54 54 53 53 54 54 54 54 54 54 54 54 52 51 51 51 51 50 49 48 49 51 52 51 52 49 45 47 48 55 52 52 51 48 46 46 46 45 44 43 43 43 45 43 41 44 45 47 47 43 44 42 42 39 38 37 39 40 39 39 41 39 39 40 45 46 44 42 42 42
56 56 56 56 56 56 56 57 57 56 56 56 56 56 56 55 55 55 54 53 53 54 54 54 54 55 54 54 53 51 50 51 50 52 48 48 48 51 50 49 49 50 48 47 47 48 47 46 45 47 47 46 45 45 44 43 44 45 45 41 41 41 41 42 42 41 41 42 40 40 39 39 40 40 40 41 42 41 41 43 43 42 40 40 40 40 40
55 55 56 56 56 56 56 57 57 58 58 57 57 57 55 55 55 54 54 56 54 54 54 54 54 54 54 53 51 50 51 50 50 49 50 49 49 48 50 51 47 48 46 44 44 44 44 44 48 50 50 44 45 44 48 48 44 43 43 46 45 42 43 45 45 43 43 44 43 42 43 42 42 41 41 41 41 42 42 41 40 40 40 39 39 40 39